Location: Vinland
(47.7731°N, 122.6974°W)
Time: 19:52:00
(UTC+00:00)

Vanguard 1 Rocket - Pass Details

Date: 30 March 2023
Orbit: 655 x 4220 km, 34.3° (Epoch: 05 June)

Event Time Altitude Azimuth Distance (km) Brightness Sun altitude
Rises 04:47:59 0° 221° (SW) 8,325 12.4 -21.5°
Reaches altitude 10° 04:54:17 10° 215° (SW) 7,406 12.0 -22.4°
Maximum altitude 05:16:42 41° 156° (SSE) 4,721 10.5 -25.4°
Enters shadow 05:23:01 35° 126° (SE) 4,603 10.3 -26.2°
